Location: Clanezzo
(45.7500°N, 9.6000°E)
Time: 03:03:56
(UTC+00:00)

EO-79 - Pass Details

Date: 03 July 2022
Orbit: 588 x 603 km, 98.0° (Epoch: 13 August)

Event Time Altitude Azimuth Distance (km) Brightness Sun altitude
Rises 23:51:37 0° 32° (NNE) 2,858 ? -21.1°
Reaches altitude 10° 23:54:51 10° 59° (ENE) 1,952 ? -21.0°
Maximum altitude 23:57:00 14° 90° (E) 1,721 ? -21.0°
Enters shadow 23:58:28 12° 112° (ESE) 1,829 ? -21.0°
